"Pseudo-MPEC" for ST26G92

Created 2026 Jul 26 18:35:19 UT using Find_Orb

Click here for an explanation of pseudo-MPECs

 
 Astrometry: 
     ST26G92* C2026 07 23.46134922 36 17.268+27 34 03.53   ~7NFo 19.17GVNEOCPU68
     ST26G92  C2026 07 23.46469122 36 27.757+27 39 06.53   ~7NFo 19.17GVNEOCPU68
     ST26G92  C2026 07 23.47267622 36 52.724+27 51 08.18   ~7NG5 18.87GVNEOCPU74
     ST26G92  C2026 07 23.47404622 36 56.946+27 53 09.51   ~7NG5 18.87GVNEOCPU74

Station data:
(U68) JPL SynTrack Robotic Telescope, Auberry  (N37.070387 W119.412990)
   US/California.  Observers N. Saini, C. Zhai, R. Trahan, M. Zhan, M. Shao.
   0.28-m f/2.2 Schmidt + CCD.
(U74) JPL SynTrack Robotic Telescope 2, Auberry  (N37.070341 W119.412800)
   US/California.  Observers N. Saini, C. Zhai, R. Trahan, M. Zhan, M. Shao.
   0.36-m f/2.2 Schmidt.

Orbital elements:  ST26G92
   Perihelion 2026 Sep 20.374390 +/- 23.6 TT =  8:59:07.3 (JD 2461303.874390)
Epoch 2026 Jul 23.0 TT = JDT 2461244.5   Earth MOID: 0.0095   Ve: 0.0573
M 308.614327408 +/- 35              Ma: 0.0198                   AutoNEOCP
n   0.865451792 +/- 0.518           Peri.  136.207610 +/- 110
a   1.090537978 +/- 0.435           Node   285.025523 +/- 80
e   0.57926017 +/- 0.23             Incl.    1.884854 +/- 5.5
P   1.139/415.960d         H 26.04  G  0.15   U 12.3  SR
q 0.458832757 +/- 0.274    Q 1.722243199 +/- 7.15         (J2000 ecliptic)
From 4 observations 2026 July 23 (18.3 min); mean residual 1".02
Residuals in arcseconds: 
260723 U68  .65-  1.0-    260723 U74  .53+  1.3+    
260723 U68  .81+  1.2+    260723 U74  .69-  1.5-    

Ephemerides (geocentric):
Date (UTC) HH   RA             Dec           delta  r     elong  mag " sig PA
---- --------  ------------   ------------  ------ ------ -----  --- --------
2026 07 26 19  08 14 42.499   +42 29 34.96  .02749 0.9903  23.2 28??  40d  63
2026 07 26 20  08 15 53.593   +42 08 13.63  .02789 .98990  22.8 28??  40d  63
2026 07 26 21  08 17 01.956   +41 47 25.06  .02828 .98946  22.5 28??  40d  63
2026 07 26 22  08 18 07.738   +41 27 08.20  .02867 .98903  22.1 28??  40d  63
2026 07 26 23  08 19 11.080   +41 07 22.02  .02907 .98860  21.8 28??  40d  63
2026 07 27 00  08 20 12.113   +40 48 05.53  .02946 .98817  21.5 28??  40d  64
2026 07 27 01  08 21 10.957   +40 29 17.76  .02986 .98773  21.2 28??  41d  64
2026 07 27 02  08 22 07.726   +40 10 57.78  .03026 .98730  20.9 28??  41d  64
2026 07 27 03  08 23 02.526   +39 53 04.70  .03066 .98687  20.6 29??  41d  64
2026 07 27 04  08 23 55.456   +39 35 37.65  .03106 .98643  20.3 29??  41d  64
2026 07 27 05  08 24 46.608   +39 18 35.78  .03146 .98600  20.0 29??  41d  64
2026 07 27 06  08 25 36.069   +39 01 58.30  .03186 .98557  19.8 29??  41d  64
2026 07 27 07  08 26 23.920   +38 45 44.42  .03227 .98513  19.5 29??  41d  64
2026 07 27 08  08 27 10.237   +38 29 53.39  .03267 .98470  19.2 29??  41d  64
2026 07 27 09  08 27 55.090   +38 14 24.49  .03308 .98426  19.0 29??  41d  64
2026 07 27 10  08 28 38.549   +37 59 17.02  .03349 .98383  18.8 29??  42d  64
2026 07 27 11  08 29 20.674   +37 44 30.30  .03389 .98340  18.5 29??  42d  64
2026 07 27 12  08 30 01.527   +37 30 03.69  .03430 .98296  18.3 30??  42d  64
2026 07 27 13  08 30 41.162   +37 15 56.56  .03471 .98253  18.1 30??  42d  64
2026 07 27 14  08 31 19.633   +37 02 08.31  .03512 .98209  17.9 30??  42d  64
2026 07 27 15  08 31 56.990   +36 48 38.36  .03553 .98166  17.7 30??  42d  64
2026 07 27 16  08 32 33.279   +36 35 26.15  .03595 .98122  17.5 30??  42d  64
2026 07 27 17  08 33 08.545   +36 22 31.14  .03636 .98079  17.3 30??  42d  64
2026 07 27 18  08 33 42.830   +36 09 52.81  .03677 .98035  17.1 30??  42d  64
2026 07 27 19  08 34 16.173   +35 57 30.67  .03718 .97992  16.9 30??  42d  64
2026 07 27 20  08 34 48.614   +35 45 24.22  .03760 .97948  16.7 30??  42d  64
2026 07 27 21  08 35 20.186   +35 33 33.02  .03801 .97905  16.5 31??  42d  64
2026 07 27 22  08 35 50.924   +35 21 56.60  .03843 .97861  16.3 31??  42d  64
2026 07 27 23  08 36 20.861   +35 10 34.53  .03885 .97817  16.2 31??  42d  64
2026 07 28 00  08 36 50.026   +34 59 26.41  .03926 .97774  16.0 31??  42d  64
2026 07 28 01  08 37 18.449   +34 48 31.82  .03968 .97730  15.8 31??  43d  64
2026 07 28 02  08 37 46.158   +34 37 50.38  .04010 .97686  15.7 31??  43d  64
2026 07 28 03  08 38 13.178   +34 27 21.72  .04052 .97643  15.5 31??  43d  64
2026 07 28 04  08 38 39.534   +34 17 05.47  .04093 .97599  15.4 31??  43d  64
2026 07 28 05  08 39 05.251   +34 07 01.30  .04135 .97555  15.2 31??  43d  65
2026 07 28 06  08 39 30.352   +33 57 08.85  .04177 .97512  15.1 31??  43d  65
2026 07 28 07  08 39 54.856   +33 47 27.81  .04219 .97468  15.0 31??  43d  65
2026 07 28 08  08 40 18.787   +33 37 57.87  .04262 .97424  14.8 32??  43d  65
2026 07 28 09  08 40 42.162   +33 28 38.72  .04304 .97381  14.7 32??  43d  65
2026 07 28 10  08 41 05.001   +33 19 30.07  .04346 .97337  14.5 32??  43d  65
2026 07 28 11  08 41 27.322   +33 10 31.64  .04388 .97293  14.4 32??  43d  65
2026 07 28 12  08 41 49.142   +33 01 43.15  .04430 .97249  14.3 32??  43d  65
2026 07 28 13  08 42 10.477   +32 53 04.35  .04473 .97206  14.2 32??  43d  65
2026 07 28 14  08 42 31.344   +32 44 34.98  .04515 .97162  14.0 32??  43d  65
2026 07 28 15  08 42 51.757   +32 36 14.78  .04557 .97118  13.9 32??  43d  65
2026 07 28 16  08 43 11.731   +32 28 03.53  .04600 .97074  13.8 32??  43d  65
2026 07 28 17  08 43 31.279   +32 20 00.99  .04642 .97030  13.7 32??  43d  65
2026 07 28 18  08 43 50.415   +32 12 06.95  .04685 .96986  13.6 32??  43d  65